HLF8817 ZSPD-RKSI

Flight info

Callsign HLF8817
Flight time N/A
Altitude 35000
Route LAMEN/N0488F350 A593 SADLI Y590 ELGEP Y722 OLMEN
Aircraft B77L/H-SDE1E2E3FGHIJ2J3J4J5M1RWXY/LB1D1

Departure

Time 2026-04-30 07:33
Airport Shanghai Pudong International Airport (ZSPD)

Arrival

Time N/A
Airport Incheon International Airport (RKSI)
Time Latitude Longitude Altitude Speed Heading
2026-04-30 07:16 31.12905 121.78865 28 ft 0 kts 252°
2026-04-30 07:24 31.12908 121.78876 27 ft 3 kts 252°
2026-04-30 07:24 31.12914 121.78898 26 ft 3 kts 252°
2026-04-30 07:24 31.12921 121.78920 25 ft 3 kts 252°
2026-04-30 07:25 31.12927 121.78942 26 ft 2 kts 252°
2026-04-30 07:25 31.12932 121.78959 25 ft 3 kts 240°
2026-04-30 07:25 31.12942 121.78974 26 ft 3 kts 190°
2026-04-30 07:25 31.12960 121.78972 27 ft 3 kts 159°
2026-04-30 07:26 31.12972 121.78966 25 ft 0 kts 162°
2026-04-30 07:28 31.12966 121.78969 25 ft 2 kts 162°
2026-04-30 07:28 31.12947 121.78976 26 ft 4 kts 161°
2026-04-30 07:29 31.12916 121.78988 27 ft 6 kts 162°
2026-04-30 07:29 31.12873 121.79004 27 ft 7 kts 162°
2026-04-30 07:29 31.12818 121.79025 26 ft 9 kts 162°
2026-04-30 07:29 31.12753 121.79049 27 ft 11 kts 162°
2026-04-30 07:30 31.12593 121.79109 27 ft 14 kts 162°
2026-04-30 07:30 31.12519 121.79169 27 ft 15 kts 97°
2026-04-30 07:30 31.12543 121.79285 26 ft 15 kts 73°
2026-04-30 07:31 31.12577 121.79410 30 ft 16 kts 72°
2026-04-30 07:31 31.12612 121.79537 27 ft 16 kts 72°
2026-04-30 07:31 31.12647 121.79664 27 ft 16 kts 72°
2026-04-30 07:31 31.12682 121.79791 28 ft 16 kts 72°
2026-04-30 07:32 31.12706 121.79872 28 ft 7 kts 63°
2026-04-30 07:32 31.12750 121.79875 27 ft 7 kts 338°
2026-04-30 07:32 31.12850 121.79836 27 ft 32 kts 342°
2026-04-30 07:32 31.13300 121.79666 26 ft 103 kts 342°
2026-04-30 07:33 31.14164 121.79341 28 ft 159 kts 342°
2026-04-30 07:33 31.15252 121.78922 461 ft 160 kts 343°
2026-04-30 07:33 31.16340 121.78501 1068 ft 166 kts 341°
2026-04-30 07:33 31.17432 121.78071 1812 ft 164 kts 341°
2026-04-30 07:34 31.18592 121.77619 2128 ft 188 kts 341°
2026-04-30 07:34 31.19913 121.77106 2374 ft 213 kts 341°
2026-04-30 07:34 31.21404 121.76530 2748 ft 234 kts 342°
2026-04-30 07:34 31.22999 121.75914 3334 ft 248 kts 341°
2026-04-30 07:35 31.24645 121.75279 4141 ft 251 kts 341°
2026-04-30 07:35 31.26320 121.74635 5012 ft 254 kts 342°
2026-04-30 07:35 31.27434 121.74207 5578 ft 255 kts 341°
2026-04-30 07:35 31.29144 121.73704 6400 ft 255 kts 355°
2026-04-30 07:36 31.30934 121.73878 7125 ft 262 kts 10°
2026-04-30 07:36 31.32674 121.74609 7831 ft 271 kts 24°
2026-04-30 07:36 31.34314 121.75733 8432 ft 275 kts 22°
2026-04-30 07:36 31.36493 121.77360 9047 ft 294 kts 46°
2026-04-30 07:37 31.37189 121.78763 9255 ft 309 kts 66°
2026-04-30 07:37 31.37642 121.81251 10027 ft 311 kts 81°
2026-04-30 07:37 31.37866 121.83779 10724 ft 317 kts 83°
2026-04-30 07:37 31.38057 121.86432 11002 ft 340 kts 82°
2026-04-30 07:38 31.38311 121.89283 11209 ft 365 kts 82°
2026-04-30 07:38 31.38444 121.92328 11341 ft 387 kts 95°
2026-04-30 07:38 31.37621 121.95393 11643 ft 405 kts 123°
2026-04-30 07:38 31.35753 121.97857 12299 ft 407 kts 148°
2026-04-30 07:39 31.33256 121.99309 13140 ft 397 kts 168°
2026-04-30 07:39 31.30632 122.00240 13871 ft 403 kts 170°
2026-04-30 07:39 31.27929 122.01196 14709 ft 407 kts 170°
2026-04-30 07:39 31.25225 122.02173 15671 ft 407 kts 170°
2026-04-30 07:40 31.22522 122.03186 16556 ft 407 kts 167°
2026-04-30 07:40 31.19987 122.04875 17109 ft 436 kts 146°
2026-04-30 07:40 31.17954 122.07603 17812 ft 457 kts 129°
2026-04-30 07:40 31.16545 122.10995 18559 ft 473 kts 113°
2026-04-30 07:41 31.15874 122.14811 19169 ft 487 kts 97°
2026-04-30 07:41 31.16104 122.18794 19743 ft 497 kts 77°
2026-04-30 07:41 31.17023 122.22655 20206 ft 504 kts 73°
2026-04-30 07:41 31.18091 122.26581 20724 ft 511 kts 72°
2026-04-30 07:42 31.19201 122.30550 21335 ft 516 kts 72°
2026-04-30 07:42 31.20307 122.34559 21931 ft 521 kts 72°
2026-04-30 07:42 31.21394 122.38616 22496 ft 526 kts 73°
2026-04-30 07:42 31.22464 122.42727 23073 ft 531 kts 73°
2026-04-30 07:43 31.23524 122.46889 23617 ft 537 kts 74°
2026-04-30 07:43 31.24583 122.51106 24070 ft 543 kts 74°
2026-04-30 07:43 31.25646 122.55364 24591 ft 547 kts 75°
2026-04-30 07:43 31.26718 122.59658 25073 ft 552 kts 75°
2026-04-30 07:44 31.27796 122.63983 25545 ft 555 kts 75°
2026-04-30 07:44 31.28864 122.68265 26063 ft 558 kts 75°
2026-04-30 07:44 31.29956 122.72645 26543 ft 563 kts 75°
2026-04-30 07:44 31.31059 122.77070 26967 ft 568 kts 75°
2026-04-30 07:45 31.32167 122.81521 27377 ft 572 kts 75°
2026-04-30 07:45 31.33283 122.86011 27824 ft 577 kts 75°
2026-04-30 07:45 31.34406 122.90534 28226 ft 581 kts 75°
2026-04-30 07:45 31.35536 122.95095 28642 ft 585 kts 75°
2026-04-30 07:46 31.36671 122.99683 29089 ft 589 kts 75°
2026-04-30 07:46 31.37810 123.04298 29598 ft 590 kts 75°
2026-04-30 07:46 31.38947 123.08906 30200 ft 589 kts 75°
2026-04-30 07:46 31.40065 123.13451 30665 ft 589 kts 75°
2026-04-30 07:47 31.41199 123.18068 31006 ft 591 kts 75°
2026-04-30 07:47 31.42337 123.22711 31331 ft 594 kts 75°
2026-04-30 07:47 31.43476 123.27366 31719 ft 595 kts 75°
2026-04-30 07:47 31.44615 123.32026 32149 ft 595 kts 75°
2026-04-30 07:48 31.45754 123.36694 32575 ft 596 kts 75°
2026-04-30 07:48 31.46890 123.41358 32974 ft 597 kts 75°
2026-04-30 07:48 31.48026 123.46031 33468 ft 596 kts 75°
2026-04-30 07:48 31.49159 123.50700 33894 ft 596 kts 75°
2026-04-30 07:49 31.50295 123.55392 34228 ft 597 kts 75°
2026-04-30 07:49 31.51430 123.60085 34527 ft 598 kts 75°
2026-04-30 07:49 31.52563 123.64780 34832 ft 598 kts 75°
2026-04-30 07:49 31.53679 123.69410 35071 ft 599 kts 76°
2026-04-30 07:50 31.54830 123.74197 35064 ft 604 kts 76°
2026-04-30 07:50 31.57085 123.83597 35071 ft 601 kts 76°
2026-04-30 07:51 31.59333 123.93001 35067 ft 597 kts 76°
2026-04-30 07:51 31.61561 124.02376 35062 ft 595 kts 77°
2026-04-30 07:52 31.63676 124.11760 35061 ft 595 kts 78°
2026-04-30 07:52 31.65745 124.21180 35068 ft 596 kts 78°
2026-04-30 07:53 31.67824 124.30609 35121 ft 598 kts 78°
2026-04-30 07:53 31.69923 124.40085 35068 ft 600 kts 78°
2026-04-30 07:54 31.72018 124.49575 35023 ft 600 kts 78°
2026-04-30 07:54 31.74089 124.59001 35050 ft 599 kts 79°
2026-04-30 07:55 31.76165 124.68491 35049 ft 599 kts 79°
2026-04-30 07:55 31.78233 124.77981 35035 ft 599 kts 79°
2026-04-30 07:56 31.80292 124.87465 35044 ft 597 kts 79°
2026-04-30 07:56 31.81910 124.96986 35029 ft 589 kts 91°
2026-04-30 07:57 31.81924 125.06501 35042 ft 574 kts 103°
2026-04-30 07:57 31.80577 125.15603 35032 ft 562 kts 111°
2026-04-30 07:58 31.79006 125.24560 35025 ft 563 kts 111°
2026-04-30 07:58 31.77499 125.33596 35024 ft 563 kts 110°
2026-04-30 07:59 31.76024 125.42632 35029 ft 563 kts 110°
2026-04-30 07:59 31.74536 125.51664 35025 ft 563 kts 111°
2026-04-30 08:00 31.72915 125.65405 35010 ft 579 kts 97°
2026-04-30 08:00 31.73767 125.74920 35020 ft 593 kts 81°
2026-04-30 08:01 31.76075 125.84259 35013 ft 593 kts 74°
2026-04-30 08:01 31.77781 125.88630 35031 ft 599 kts 58°
2026-04-30 08:01 31.80324 125.92491 34995 ft 596 kts 42°
2026-04-30 08:02 31.86976 125.97972 35017 ft 573 kts 12°
2026-04-30 08:02 31.90721 125.99458 35025 ft 567 kts
2026-04-30 08:03 32.05797 126.05480 35031 ft 576 kts 11°
2026-04-30 08:04 32.13351 126.08706 35011 ft 577 kts 11°
2026-04-30 08:04 32.20909 126.11907 35003 ft 576 kts 11°
2026-04-30 08:05 32.28441 126.15101 35003 ft 575 kts 11°
2026-04-30 08:05 32.35898 126.18274 34998 ft 572 kts 11°
2026-04-30 08:06 32.43420 126.21481 35029 ft 570 kts 11°
2026-04-30 08:06 32.50824 126.24641 34999 ft 568 kts 11°
2026-04-30 08:07 32.58298 126.27842 34996 ft 567 kts 11°
2026-04-30 08:07 32.65682 126.31018 35005 ft 569 kts 12°
2026-04-30 08:08 32.73122 126.34228 35004 ft 570 kts 12°
2026-04-30 08:08 32.80580 126.37450 35044 ft 571 kts 12°
2026-04-30 08:09 32.88055 126.40685 35008 ft 572 kts 12°
2026-04-30 08:09 32.95536 126.43930 34993 ft 572 kts 12°
2026-04-30 08:10 33.03007 126.47169 34993 ft 571 kts 12°
2026-04-30 08:10 33.10481 126.50366 34940 ft 570 kts 11°
2026-04-30 08:11 33.17905 126.53536 35051 ft 569 kts 12°
2026-04-30 08:11 33.25375 126.56743 35009 ft 570 kts 12°
2026-04-30 08:12 33.32849 126.59962 34997 ft 571 kts 12°
2026-04-30 08:12 33.40323 126.63188 35017 ft 571 kts 12°
2026-04-30 08:13 33.47777 126.66458 35000 ft 569 kts 13°
2026-04-30 08:13 33.55274 126.69336 35036 ft 560 kts
2026-04-30 08:14 33.62872 126.70758 34999 ft 546 kts 355°
2026-04-30 08:14 33.70440 126.71451 34995 ft 545 kts 355°
2026-04-30 08:15 33.78015 126.72206 35012 ft 547 kts 356°
2026-04-30 08:15 33.85567 126.73026 34999 ft 547 kts 356°
2026-04-30 08:16 33.93158 126.73836 34995 ft 547 kts 356°
2026-04-30 08:16 34.00703 126.74617 34998 ft 547 kts 356°
2026-04-30 08:17 34.08283 126.75401 34998 ft 546 kts 356°
2026-04-30 08:17 34.15877 126.76200 35019 ft 547 kts 356°
2026-04-30 08:18 34.23471 126.76998 34996 ft 547 kts 356°
2026-04-30 08:18 34.31062 126.77794 34982 ft 548 kts 356°
2026-04-30 08:19 34.38671 126.78598 34996 ft 548 kts 357°
2026-04-30 08:19 34.46274 126.79404 34984 ft 548 kts 357°
2026-04-30 08:20 34.53870 126.80210 34991 ft 548 kts 357°
2026-04-30 08:20 34.61414 126.81010 34982 ft 548 kts 358°
2026-04-30 08:21 34.69045 126.81828 34978 ft 546 kts 357°
2026-04-30 08:21 34.76550 126.82621 34915 ft 542 kts
2026-04-30 08:21 34.80251 126.83011 34985 ft 528 kts
2026-04-30 08:22 34.83908 126.83404 34988 ft 525 kts
2026-04-30 08:22 34.89932 126.84054 34991 ft 521 kts
2026-04-30 08:23 34.97119 126.84826 34994 ft 516 kts
2026-04-30 08:23 35.04250 126.85591 34992 ft 512 kts
2026-04-30 08:24 35.11332 126.86352 34994 ft 509 kts
2026-04-30 08:24 35.18375 126.87114 34995 ft 506 kts
2026-04-30 08:25 35.25374 126.87876 34996 ft 503 kts
2026-04-30 08:25 35.32334 126.88635 35001 ft 501 kts
2026-04-30 08:26 35.39231 126.89389 34998 ft 499 kts
2026-04-30 08:26 35.46133 126.90143 34999 ft 497 kts
2026-04-30 08:27 35.53013 126.90897 35000 ft 495 kts
2026-04-30 08:27 35.59872 126.91646 34999 ft 494 kts
2026-04-30 08:28 35.66711 126.92394 34999 ft 492 kts
2026-04-30 08:28 35.73528 126.93142 35000 ft 491 kts
2026-04-30 08:29 35.80331 126.93890 35000 ft 490 kts
2026-04-30 08:29 35.87120 126.94637 35000 ft 489 kts
2026-04-30 08:30 35.93852 126.95382 35000 ft 488 kts
2026-04-30 08:30 36.00615 126.96137 35001 ft 487 kts
2026-04-30 08:31 36.07362 126.96892 35001 ft 486 kts
2026-04-30 08:31 36.14098 126.97646 35000 ft 486 kts
2026-04-30 08:32 36.20827 126.98401 35001 ft 485 kts
2026-04-30 08:32 36.27544 126.99155 35001 ft 484 kts
2026-04-30 08:33 36.34215 126.99906 35000 ft 484 kts
2026-04-30 08:33 36.40948 127.00411 35003 ft 483 kts 358°
2026-04-30 08:34 36.47661 127.00103 35000 ft 483 kts 357°
2026-04-30 08:34 36.54374 126.99795 35004 ft 483 kts 358°
2026-04-30 08:35 36.61088 126.99551 35000 ft 483 kts 358°
2026-04-30 08:35 36.67811 126.99313 35002 ft 483 kts 358°
2026-04-30 08:36 36.74535 126.99070 35000 ft 483 kts 358°
2026-04-30 08:36 36.81254 126.98827 35002 ft 483 kts 358°
2026-04-30 08:37 36.87973 126.98583 34997 ft 480 kts 358°
2026-04-30 08:37 36.91264 126.98464 34980 ft 467 kts 358°
2026-04-30 08:37 36.94472 126.98348 34983 ft 455 kts 358°
2026-04-30 08:38 37.00733 126.98123 35006 ft 453 kts 358°
2026-04-30 08:38 37.07074 126.97894 35010 ft 457 kts 358°
2026-04-30 08:39 37.13467 126.97663 35008 ft 461 kts 358°
2026-04-30 08:39 37.19904 126.97429 35007 ft 464 kts 358°
2026-04-30 08:40 37.26365 126.97195 35003 ft 465 kts 358°
2026-04-30 08:40 37.32848 126.96960 35001 ft 466 kts 358°
2026-04-30 08:41 37.39285 126.96726 35000 ft 465 kts 358°
2026-04-30 08:41 37.45755 126.96490 34999 ft 464 kts 358°
2026-04-30 08:42 37.52214 126.96256 34998 ft 463 kts 358°
2026-04-30 08:42 37.58641 126.96022 35000 ft 461 kts 358°
2026-04-30 08:43 37.65050 126.95788 35001 ft 460 kts 358°
2026-04-30 08:43 37.71409 126.95556 34999 ft 459 kts 358°
2026-04-30 08:44 37.77803 126.95322 35000 ft 459 kts 358°
2026-04-30 08:44 37.84187 126.95089 35002 ft 459 kts 358°
2026-04-30 08:45 37.90577 126.94856 35002 ft 459 kts 358°
2026-04-30 08:45 37.96974 126.94622 35004 ft 460 kts 358°
2026-04-30 08:46 38.03378 126.94388 35002 ft 461 kts 358°
2026-04-30 08:46 38.09753 126.94154 35002 ft 462 kts 358°
2026-04-30 08:47 38.16196 126.93918 35009 ft 465 kts 358°
2026-04-30 08:47 38.22695 126.93680 35010 ft 468 kts 358°
2026-04-30 08:48 38.29219 126.93439 35008 ft 470 kts 358°
2026-04-30 08:48 38.35778 126.93198 35008 ft 472 kts 358°
2026-04-30 08:49 38.42363 126.92955 35005 ft 474 kts 358°
2026-04-30 08:49 38.48945 126.92711 35002 ft 476 kts 358°
2026-04-30 08:50 38.55578 126.92465 35002 ft 477 kts 358°
2026-04-30 08:50 38.62232 126.92218 35002 ft 479 kts 358°
2026-04-30 08:51 38.68902 126.91970 35002 ft 480 kts 358°
2026-04-30 08:51 38.75581 126.91722 35001 ft 480 kts 358°
2026-04-30 08:52 38.82244 126.91473 35001 ft 481 kts 358°
2026-04-30 08:52 38.88955 126.91223 35003 ft 482 kts 358°
2026-04-30 08:53 38.95667 126.90972 35001 ft 482 kts 358°
2026-04-30 08:53 39.02341 126.90723 35004 ft 483 kts 358°
2026-04-30 08:54 39.09066 126.90471 35000 ft 483 kts 358°
2026-04-30 08:54 39.15790 126.90219 35003 ft 484 kts 358°